When you browse on this site, cookies collect data to enhance your experience and personalize the content and advertising you see.
Visit our Privacy Policy to learn more. By continuing to use the site, you agree to this use of cookies and data.
  • In Czech Republic
  • List of Countries
  • For 7 days
  • Water Temperature
  • Weather Map
  • Weather Widgets
  • user-avatar
    Login

    Hourly Weather Korçe

    Today, 29 February, Saturday

    Time Temperature Precipitation Wind Pressure Humidity
    00:00 -3°C° 0 mm 2 mps 663 mmHg 93%
    01:00 -3°C° 0 mm 2 mps 664 mmHg 93%
    02:00 -3°C° 0 mm 2 mps 664 mmHg 91%
    03:00 -4°C° 0 mm 2 mps 664 mmHg 89%
    04:00 -4°C° 0 mm 2 mps 664 mmHg 87%
    05:00 -1°C° 0 mm 1 mps 664 mmHg 82%
    06:00 -1°C° 0 mm 1 mps 665 mmHg 77%
    07:00 -1°C° 0 mm 1 mps 665 mmHg 71%
    08:00 +1°C° 0 mm 1 mps 666 mmHg 60%
    09:00 +3°C° 0 mm 1 mps 666 mmHg 49%
    10:00 +4°C° 0 mm 1 mps 667 mmHg 37%
    11:00 +6°C° 0 mm 1 mps 667 mmHg 36%
    12:00 +7°C° 0 mm 1 mps 667 mmHg 35%
    13:00 +8°C° 0 mm 1 mps 667 mmHg 33%
    14:00 +7°C° 0 mm 1 mps 667 mmHg 38%
    15:00 +7°C° 0 mm 1 mps 667 mmHg 44%
    16:00 +6°C° 0 mm 1 mps 667 mmHg 49%
    17:00 +5°C° 0 mm 1 mps 666 mmHg 52%
    18:00 +4°C° 0 mm 1 mps 666 mmHg 56%
    19:00 +3°C° 0 mm 1 mps 666 mmHg 60%
    20:00 +2°C° 0 mm 1 mps 666 mmHg 60%
    21:00 +2°C° 0 mm 1 mps 666 mmHg 60%
    22:00 +1°C° 0 mm 2 mps 666 mmHg 60%
    23:00 +1°C° 0 mm 2 mps 666 mmHg 61%

    Tomorrow, 1 March, Sunday

    Time Temperature Precipitation Wind Pressure Humidity
    00:00 -1°C° 0 mm 2 mps 666 mmHg 62%
    01:00 -1°C° 0 mm 2 mps 666 mmHg 62%
    02:00 -1°C° 0 mm 2 mps 666 mmHg 64%
    03:00 -1°C° 0 mm 2 mps 665 mmHg 66%
    04:00 -2°C° 0 mm 2 mps 665 mmHg 68%
    05:00 -2°C° 0 mm 2 mps 665 mmHg 67%
    06:00 -1°C° 0 mm 2 mps 665 mmHg 67%
    07:00 -1°C° 0 mm 2 mps 665 mmHg 67%
    08:00 +2°C° 0 mm 2 mps 666 mmHg 60%
    09:00 +4°C° 0 mm 2 mps 666 mmHg 54%
    10:00 +5°C° 0 mm 3 mps 667 mmHg 47%
    11:00 +7°C° 0 mm 3 mps 667 mmHg 50%
    12:00 +7°C° 0 mm 3 mps 667 mmHg 52%
    13:00 +8°C° 0 mm 3 mps 667 mmHg 55%
    14:00 +8°C° 0 mm 3 mps 666 mmHg 61%
    15:00 +7°C° 0 mm 3 mps 665 mmHg 67%
    16:00 +7°C° 0 mm 3 mps 665 mmHg 73%
    17:00 +5°C° 0 mm 3 mps 665 mmHg 79%
    18:00 +4°C° 0 mm 3 mps 665 mmHg 85%
    19:00 +3°C° 0 mm 3 mps 665 mmHg 91%
    20:00 +3°C° 0 mm 3 mps 665 mmHg 91%
    21:00 +3°C° 0 mm 3 mps 665 mmHg 91%
    22:00 +3°C° 0 mm 3 mps 665 mmHg 91%
    23:00 +3°C° 0 mm 3 mps 664 mmHg 92%

    Day after tomorrow, 2 March, Monday

    Time Temperature Precipitation Wind Pressure Humidity
    00:00 +3°C° 0 mm 3 mps 664 mmHg 92%
    01:00 +3°C° 0 mm 3 mps 664 mmHg 92%
    02:00 +3°C° 0.1 mm 3 mps 664 mmHg 93%
    03:00 +3°C° 0.1 mm 3 mps 664 mmHg 94%
    04:00 +3°C° 0.1 mm 3 mps 663 mmHg 95%
    05:00 +3°C° 0 mm 3 mps 663 mmHg 95%
    06:00 +3°C° 0 mm 3 mps 663 mmHg 96%
    07:00 +4°C° 0 mm 3 mps 663 mmHg 96%
    08:00 +5°C° 0 mm 3 mps 664 mmHg 92%
    09:00 +7°C° 0 mm 3 mps 664 mmHg 88%
    10:00 +8°C° 0 mm 3 mps 664 mmHg 84%
    11:00 +8°C° 0.1 mm 4 mps 664 mmHg 80%
    12:00 +10°C° 0.1 mm 4 mps 664 mmHg 76%
    13:00 +10°C° 0.1 mm 4 mps 664 mmHg 72%
    14:00 +10°C° 0 mm 4 mps 664 mmHg 72%
    15:00 +10°C° 0 mm 4 mps 663 mmHg 73%
    16:00 +10°C° 0 mm 4 mps 663 mmHg 73%
    17:00 +9°C° 0 mm 3 mps 663 mmHg 80%
    18:00 +7°C° 0 mm 3 mps 662 mmHg 87%
    19:00 +5°C° 0 mm 3 mps 662 mmHg 94%
    20:00 +5°C° 0 mm 3 mps 662 mmHg 94%
    21:00 +5°C° 0 mm 3 mps 662 mmHg 94%
    22:00 +5°C° 0 mm 3 mps 662 mmHg 94%
    23:00 +5°C° 0 mm 3 mps 661 mmHg 94%

    3 March, Tuesday

    Time Temperature Precipitation Wind Pressure Humidity
    00:00 +5°C° 0 mm 4 mps 661 mmHg 93%
    01:00 +4°C° 0 mm 4 mps 660 mmHg 93%
    02:00 +4°C° 0.1 mm 4 mps 660 mmHg 93%
    03:00 +4°C° 0.1 mm 4 mps 660 mmHg 93%
    04:00 +4°C° 0.1 mm 4 mps 659 mmHg 93%
    05:00 +5°C° 0.9 mm 4 mps 659 mmHg 93%
    06:00 +5°C° 0.9 mm 4 mps 659 mmHg 93%
    07:00 +5°C° 0.9 mm 5 mps 658 mmHg 93%
    08:00 +5°C° 3.6 mm 5 mps 658 mmHg 93%
    09:00 +5°C° 3.6 mm 5 mps 658 mmHg 93%
    10:00 +5°C° 3.6 mm 5 mps 658 mmHg 93%
    11:00 +6°C° 3.4 mm 5 mps 657 mmHg 93%
    12:00 +6°C° 3.4 mm 5 mps 657 mmHg 93%
    13:00 +5°C° 3.4 mm 6 mps 656 mmHg 92%
    14:00 +6°C° 5.2 mm 5 mps 656 mmHg 94%
    15:00 +6°C° 5.2 mm 4 mps 655 mmHg 95%
    16:00 +6°C° 5.2 mm 4 mps 655 mmHg 96%
    17:00 +5°C° 4.4 mm 3 mps 655 mmHg 96%
    18:00 +5°C° 4.4 mm 3 mps 655 mmHg 97%
    19:00 +4°C° 4.4 mm 3 mps 655 mmHg 97%
    20:00 +5°C° 0.8 mm 2 mps 655 mmHg 97%
    21:00 +4°C° 0.8 mm 2 mps 655 mmHg 96%
    22:00 +3°C° 0.8 mm 2 mps 655 mmHg 96%
    23:00 +3°C° 1.4 mm 2 mps 655 mmHg 96%

    4 March, Wednesday

    Time Temperature Precipitation Wind Pressure Humidity
    00:00 +3°C° 1.4 mm 1 mps 655 mmHg 97%
    01:00 +3°C° 1.4 mm 1 mps 655 mmHg 97%
    02:00 +3°C° 1 mm 1 mps 655 mmHg 97%
    03:00 +3°C° 1 mm 1 mps 655 mmHg 97%
    04:00 +2°C° 1 mm 1 mps 655 mmHg 96%
    05:00 +2°C° 1.1 mm 1 mps 655 mmHg 97%
    06:00 +1°C° 1.1 mm 2 mps 655 mmHg 97%
    07:00 +1°C° 1.1 mm 2 mps 656 mmHg 97%
    08:00 +2°C° 0.3 mm 2 mps 656 mmHg 93%
    09:00 +2°C° 0.3 mm 2 mps 657 mmHg 90%
    10:00 +3°C° 0.3 mm 2 mps 657 mmHg 87%
    11:00 +4°C° 0.3 mm 2 mps 657 mmHg 82%
    12:00 +5°C° 0.3 mm 2 mps 658 mmHg 77%
    13:00 +5°C° 0.3 mm 2 mps 658 mmHg 72%
    14:00 +5°C° 0.3 mm 2 mps 658 mmHg 73%
    15:00 +5°C° 0.3 mm 2 mps 658 mmHg 74%
    16:00 +4°C° 0.3 mm 2 mps 657 mmHg 75%
    17:00 +5°C° 0.3 mm 1 mps 658 mmHg 80%
    18:00 +4°C° 0.3 mm 1 mps 658 mmHg 86%
    19:00 +3°C° 0.3 mm 1 mps 658 mmHg 91%
    20:00 +1°C° 0.1 mm 0 mps 658 mmHg 91%
    21:00 +1°C° 0.1 mm 0 mps 659 mmHg 92%
    22:00 +1°C° 0.1 mm 0 mps 659 mmHg 93%
    23:00 +1°C° 0 mm 0 mps 659 mmHg 92%

    5 March, Thursday

    Time Temperature Precipitation Wind Pressure Humidity
    00:00 +1°C° 0 mm 0 mps 659 mmHg 92%
    01:00 0°C° 0 mm 0 mps 659 mmHg 92%
    02:00 0°C° 0 mm 0 mps 659 mmHg 91%
    03:00 0°C° 0 mm 0 mps 659 mmHg 91%
    04:00 0°C° 0 mm 0 mps 659 mmHg 91%
    05:00 0°C° 0 mm 0 mps 659 mmHg 90%
    06:00 0°C° 0 mm 0 mps 659 mmHg 89%
    07:00 +1°C° 0 mm 0 mps 660 mmHg 88%
    08:00 +3°C° 0.1 mm 1 mps 660 mmHg 83%
    09:00 +4°C° 0.1 mm 1 mps 661 mmHg 77%
    10:00 +6°C° 0.1 mm 1 mps 661 mmHg 72%
    11:00 +5°C° 0.3 mm 2 mps 661 mmHg 70%
    12:00 +6°C° 0.3 mm 2 mps 661 mmHg 68%
    13:00 +5°C° 0.3 mm 3 mps 661 mmHg 66%
    14:00 +5°C° 0.1 mm 3 mps 661 mmHg 67%
    15:00 +5°C° 0.1 mm 3 mps 661 mmHg 68%
    16:00 +4°C° 0.1 mm 3 mps 661 mmHg 69%
    17:00 +4°C° 0 mm 2 mps 661 mmHg 75%
    18:00 +4°C° 0 mm 1 mps 661 mmHg 81%
    19:00 +2°C° 0 mm 1 mps 661 mmHg 87%
    20:00 +2°C° 0 mm 1 mps 661 mmHg 87%
    21:00 +2°C° 0 mm 1 mps 661 mmHg 87%
    22:00 +2°C° 0 mm 1 mps 661 mmHg 88%
    23:00 +2°C° 0 mm 1 mps 661 mmHg 89%
    Show more